Bennington, VT

2:10 PM EST on November 20, 2019 (GMT -0500)
Morse State

Weather History for KDDH - October, 2019

Change the Weather History Date:

Monday, October 21, 2019

  Actual Average Record
Temperature  
Mean Temperature 47 °F 46 °F  
Max Temperature 60 °F 57 °F 74 °F (2017)
Min Temperature 34 °F 35 °F 27 °F (2002)
Degree Days  
Heating Degree Days 18 19  
Month to date heating degree days 307 334  
Since 1 July heating degree days 528 612  
Cooling Degree Days 0 0  
Month to date cooling degree days 3 0  
Year to date cooling degree days 375 311  
Moisture  
Dew Point 38 °F    
Average Humidity 84    
Maximum Humidity 100    
Minimum Humidity 67    
Precipitation  
Precipitation 0.00 in 0.12 in 0.77 in (2016)
Month to date precipitation 4.36 2.62  
Year to date precipitation 34.10 33.73  
Sea Level Pressure  
Sea Level Pressure 30.09 in    
Wind  
Wind Speed 2 mph (West)    
Max Wind Speed 9 mph    
Max Gust Speed 12 mph    
Visibility 4 miles    
Events Fog    
T = Trace of Precipitation, MM = Missing Value Source: NWS Daily Summary

Daily Weather History Graph

Daily Weather History Graph

Search for Another Location

Airport or City:

Astronomy

Oct. 21, 2019 Rise Set
Actual Time 7:13 AM EDT 6:01 PM EDT
Civil Twilight 6:44 AM EDT 6:30 PM EDT
Nautical Twilight 6:11 AM EDT 7:03 PM EDT
Astronomical Twilight 5:38 AM EDT 7:35 PM EDT
Moon No Moon Rise 2:34 PM EDT (10/21)
Length of Visible Light 11h 45m
Length of Day
10h 47m
Waning Gibbous, 48% of the Moon is Illuminated
Oct 21
Waning Gibbous
Oct 27
New
Nov 4
First Quarter
Nov 12
Full
Nov 19
Last Quarter

Hourly Weather History & Observations

Time (EDT) Temp. Windchill Dew Point Humidity Pressure Visibility Wind Dir Wind Speed Gust Speed Precip Events Conditions
12:00 AM 43.0 °F - 41.0 °F 93% 30.04 in 0.8 mi Calm Calm - N/A   Mist
12:07 AM 43.0 °F - 41.0 °F 93% 30.03 in 1.2 mi Calm Calm - N/A   Scattered Clouds
12:16 AM 41.0 °F - 39.9 °F 96% 30.04 in 0.8 mi Calm Calm - N/A   Mist
12:36 AM 41.0 °F - 39.9 °F 96% 30.05 in 0.2 mi Calm Calm - N/A Fog Fog
12:54 AM 39.9 °F - 37.9 °F 93% 30.05 in 0.5 mi Calm Calm - N/A Fog Fog
1:13 AM 41.0 °F - 39.0 °F 93% 30.05 in 0.2 mi Calm Calm - N/A Fog Fog
1:25 AM 39.9 °F - 37.0 °F 89% 30.05 in 0.5 mi Calm Calm - N/A Fog Fog
1:54 AM 39.9 °F 37.8 °F 37.9 °F 93% 30.06 in 0.2 mi South 3.5 mph - N/A Fog Fog
2:09 AM 39.0 °F 36.8 °F 37.9 °F 96% 30.05 in 1.0 mi South 3.5 mph - N/A   Mist
2:17 AM 37.9 °F - 36.0 °F 93% 30.05 in 2.0 mi Calm Calm - N/A   Scattered Clouds
2:42 AM 39.0 °F 36.8 °F 37.0 °F 93% 30.06 in 3.0 mi NNW 3.5 mph - N/A   Partly Cloudy
2:45 AM 39.0 °F 36.8 °F 37.0 °F 93% 30.06 in 1.5 mi NNW 3.5 mph - N/A   Scattered Clouds
2:48 AM 39.2 °F 37.0 °F 37.4 °F 93% 30.06 in 0.8 mi North 3.5 mph - N/A   Mist
2:54 AM 37.9 °F - 37.0 °F 97% 30.07 in 0.5 mi Calm Calm - N/A Fog Fog
3:01 AM 37.9 °F - 37.0 °F 97% 30.06 in 0.2 mi Calm Calm - N/A Fog Fog
3:49 AM 37.4 °F - 35.6 °F 93% 30.06 in 0.5 mi Calm Calm - N/A Fog Fog
3:54 AM 37.0 °F - 36.0 °F 96% 30.08 in 0.5 mi Calm Calm - N/A Fog Fog
4:05 AM 37.0 °F - 36.0 °F 96% 30.07 in 0.2 mi Calm Calm - N/A Fog Fog
4:34 AM 37.0 °F - 35.1 °F 93% 30.07 in 0.5 mi Calm Calm - N/A Fog Fog
4:54 AM 36.0 °F - 35.1 °F 97% 30.08 in 0.8 mi Calm Calm - N/A   Mist
5:14 AM 36.0 °F - 34.0 °F 93% 30.07 in 2.5 mi Calm Calm - N/A   Mostly Cloudy
5:22 AM 36.0 °F - 34.0 °F 93% 30.07 in 0.8 mi Calm Calm - N/A   Mist
5:37 AM 35.1 °F - 34.0 °F 96% 30.08 in 0.2 mi Calm Calm - N/A Fog Fog
5:54 AM 35.1 °F 32.2 °F 34.0 °F 96% 30.09 in 0.2 mi South 3.5 mph - N/A Fog Fog
6:26 AM 34.0 °F - 33.1 °F 96% 30.09 in 0.8 mi Calm Calm - N/A   Mist
6:36 AM 34.0 °F - 33.1 °F 96% 30.09 in 1.2 mi Calm Calm - N/A   Partly Cloudy
6:43 AM 34.0 °F - 33.1 °F 96% 30.09 in 3.0 mi Calm Calm - N/A   Partly Cloudy
6:54 AM 34.0 °F - 33.1 °F 96% 30.11 in 7.0 mi Calm Calm - N/A   Scattered Clouds
7:17 AM 34.0 °F - 32.0 °F 92% 30.09 in 1.2 mi Calm Calm - N/A   Mostly Cloudy
7:26 AM 34.0 °F - 33.1 °F 96% 30.10 in 0.8 mi Calm Calm - N/A   Mist
7:31 AM 34.0 °F - 32.0 °F 92% 30.10 in 2.0 mi Calm Calm - N/A   Mostly Cloudy
7:39 AM 34.0 °F - 32.0 °F 92% 30.10 in 1.5 mi Calm Calm - N/A   Overcast
7:42 AM 34.0 °F - 32.0 °F 92% 30.10 in 0.2 mi Calm Calm - N/A Fog Fog
7:54 AM 34.0 °F - 33.1 °F 96% 30.13 in 0.2 mi Calm Calm - N/A Fog Fog
8:26 AM 37.0 °F - 35.1 °F 93% 30.11 in 0.5 mi Calm Calm - N/A Fog Fog
8:34 AM 37.9 °F - 36.0 °F 93% 30.10 in 0.2 mi Calm Calm - N/A Fog Fog
8:54 AM 39.0 °F - 37.9 °F 96% 30.14 in 0.8 mi Calm Calm - N/A   Mist
9:01 AM 39.9 °F - 37.9 °F 93% 30.13 in 1.5 mi Calm Calm - N/A   Overcast
9:40 AM 43.0 °F 41.3 °F 41.0 °F 93% 30.13 in 10.0 mi West 3.5 mph - N/A   Scattered Clouds
9:54 AM 44.1 °F 42.5 °F 42.1 °F 93% 30.14 in 10.0 mi North 3.5 mph - N/A   Partly Cloudy
10:54 AM 51.1 °F - 45.0 °F 80% 30.14 in 10.0 mi NNE 4.6 mph - N/A   Clear
11:36 AM 51.1 °F - 46.0 °F 83% 30.13 in 10.0 mi North 6.9 mph - N/A   Partly Cloudy
11:54 AM 51.1 °F - 45.0 °F 80% 30.13 in 10.0 mi Variable 4.6 mph - N/A   Clear
12:54 PM 54.0 °F - 46.0 °F 75% 30.13 in 10.0 mi NNW 6.9 mph - N/A   Clear
1:54 PM 55.0 °F - 46.9 °F 74% 30.11 in 10.0 mi Variable 3.5 mph - N/A   Clear
2:54 PM 57.9 °F - 48.0 °F 70% 30.10 in 10.0 mi Calm Calm - N/A   Clear
3:54 PM 59.0 °F - 48.0 °F 67% 30.10 in 10.0 mi Calm Calm - N/A   Clear
4:54 PM 57.9 °F - 48.9 °F 72% 30.11 in 10.0 mi West 3.5 mph - N/A   Clear
5:54 PM 54.0 °F - 48.0 °F 80% 30.13 in 10.0 mi Calm Calm - N/A   Clear
6:54 PM 46.0 °F 44.8 °F 43.0 °F 89% 30.13 in 10.0 mi South 3.5 mph - N/A   Clear
7:54 PM 46.0 °F 44.8 °F 43.0 °F 89% 30.14 in 9.0 mi Variable 3.5 mph - N/A   Clear
8:54 PM 43.0 °F 40.3 °F 39.9 °F 89% 30.15 in 10.0 mi South 4.6 mph - N/A   Clear
9:54 PM 43.0 °F 40.3 °F 41.0 °F 93% 30.13 in 10.0 mi SE 4.6 mph - N/A   Clear
10:54 PM 51.1 °F - 43.0 °F 74% 30.13 in 10.0 mi ESE 3.5 mph - N/A   Clear
11:54 PM 46.0 °F 43.9 °F 42.1 °F 86% 30.13 in 10.0 mi SE 4.6 mph - N/A   Clear